GW7242 Weather Reports


time (UTC)temp
C
wind
direction
speed
KPH
gust
KPH
rain 1hr
cm
rain 24hr
cm
rain mn
cm
humidity
%
barometer
mb
20260510011244 15 90 0.0 0.0 0.00 0.00 0.00 68 1009.9
20260510001241 18 86 0.0 0.0 0.00 0.00 0.00 58 1009.2
20260509231238 21 116 1.6 3.2 0.00 0.00 0.00 44 1008.6
20260509221236 22 247 3.2 4.8 0.00 0.00 0.00 40 1008.6
20260509211236 22 279 3.2 4.8 0.00 0.00 0.00 40 1008.3
20260509201235 22 168 1.6 1.6 0.00 0.00 0.00 40 1007.9
20260509191236 23 174 1.6 3.2 0.00 0.00 0.00 39 1008.8
20260509181231 22 72 3.2 4.8 0.00 0.00 0.00 45 1009.1
20260509171226 20 276 3.2 4.8 0.00 0.00 0.00 44 1010.2
20260509161226 20 138 3.2 6.4 0.00 0.00 0.00 47 1010.3
20260509151224 18 13 1.6 3.2 0.00 0.00 0.00 52 1010.2
20260509141219 17 87 3.2 4.8 0.00 0.00 0.00 56 1010.5
20260509131215 15 231 1.6 3.2 0.00 0.00 0.00 57 1011.3
20260509121211 14 116 1.6 1.6 0.00 0.00 0.00 56 1011.5
20260509111209 11 88 0.0 0.0 0.00 0.00 0.00 65 1011.5
20260509101209 11 104 0.0 0.0 0.00 0.00 0.00 67 1011.4
20260509091205 13 108 0.0 0.0 0.00 0.00 0.00 50 1011.6
20260509081205 13 135 1.6 1.6 0.00 0.00 0.00 48 1011.8
20260509071200 12 103 0.0 0.0 0.00 0.00 0.00 57 1012.0
20260509061158 13 85 0.0 0.0 0.00 0.00 0.00 47 1012.6
20260509051156 13 271 3.2 3.2 0.00 0.00 0.00 46 1012.8
20260509041153 13 164 0.0 1.6 0.00 0.00 0.00 50 1012.5
20260509031148 13 122 0.0 1.6 0.00 0.00 0.00 51 1012.7
20260509021143 12 102 1.6 1.6 0.00 0.00 0.00 55 1013.1